Regional Weather Roundup
Issued by NWS

Home | Current Version | Previous Version | Graphics & Text | Print | Product List | Glossary Off
Versions: 1 2 3 4 5 6 7 8 9 10 11 12 13 14 15 16 17 18 19 20 21 22 23 24 25 26 27 28 29 30 31 32 33 34 35 36 37 38 39 40 41 42 43 44 45 46 47 48 49 50

351
ASUS43 KMKX 190900
RWRWI

WISCONSIN REGIONAL WEATHER ROUNDUP
NATIONAL WEATHER SERVICE MILWAUKEE/SULLIVAN WI
300 AM CST THU JAN 19 2017

NOTE: "FAIR" INDICATES FEW OR NO CLOUDS BELOW 12,000 FEET WITH NO
SIGNIFICANT WEATHER AND/OR OBSTRUCTIONS TO VISIBILITY.

WIZ001-002-006>008-014>016-023>028-191000-
NORTHWEST WISCONSIN

CITY           SKY/WX    TMP DP  RH WIND       PRES   REMARKS
SUPERIOR ARPT  CLOUDY    30  29  98 SW3       29.79S FOG
ASHLAND        CLOUDY    32  30  92 S3        29.82S FOG
HAYWARD        CLOUDY    30  27  88 S6        29.82F FOG     WCI  24
SIREN          CLOUDY    31  31  99 SE7       29.81S FOG     WCI  25
CUMBERLAND     FOG       27  25  93 CALM      29.83S VSB<1/4
RICE LAKE      FOG       27  27  98 E6        29.86S VSB<1/4 WCI  21
CHETEK         NOT AVBL
LADYSMITH      FOG       30  30  99 S5        29.88S VSB 1/2 WCI  25
EAU CLAIRE     FOG       29  29 100 S6        29.88S VSB 1/4 WCI  23
MENOMONIE      FOG       25  25  98 MISG      29.88R VSB 1/4
NEW RICHMOND   CLOUDY    31  31  99 S7        29.83S WCI  24
OSCEOLA        CLOUDY    32  32 100 S8        29.85S WCI  25
$$

WIZ003>005-009-010-017-018-191000-
NORTH CENTRAL WISCONSIN

CITY           SKY/WX    TMP DP  RH WIND       PRES   REMARKS
MANITOWISH WTR FOG       31  31 100 SW6       29.84S VSB 1   WCI  25
ARBOR VITAE    CLOUDY    32  30  94 CALM      29.85R FOG
WOODRUFF       CLOUDY    32  30  94 CALM      29.85R FOG
RHINELANDER    FOG       31  31 100 SW7       29.86S VSB 1/4 WCI  24
EAGLE RIVER    CLOUDY    32  32 100 SW9       29.85R FOG     WCI  24
LAND O LAKES   CLOUDY    31  30  99 CALM      29.85S FOG
PHILLIPS       FOG       30  30 100 S8        29.85S VSB 3/4 WCI  22
TOMAHAWK       CLOUDY    30  29  96 CALM      29.88S FOG
MEDFORD        FOG       30  29  99 S7        29.88R VSB 1/4 WCI  23
MERRILL        FOG       30  30 100 CALM        N/A  VSB 1/2
$$

WIZ029-030-035-036-043>047-191000-
CENTRAL WISCONSIN

CITY           SKY/WX    TMP DP  RH WIND       PRES   REMARKS
WAUSAU         FOG       30  30 100 SW7       29.90S VSB 1/2 WCI  23
MOSINEE        SNOW      30  30 100 SW10      29.92R VSB 1/4 WCI  21
MARSHFIELD     FOG       31  30  96 SW7       29.91R VSB 1/4 WCI  24
STEVENS POINT  FOG       29  29 100 SW8       29.94R VSB 1/2 WCI  21
WAUPACA        CLOUDY    33  32  94 CALM      29.95R FOG
WAUTOMA        CLOUDY    33  32  96 SW8       29.96S FOG     WCI  26
WISC RAPIDS    FOG       32  32 100 SW12      29.95R VSB 1   WCI  23
CAMP DOUGLAS   CLOUDY    36  32  87 CALM      29.94S
$$

WIZ011>013-019>022-031-037>040-048>050-191000-
NORTHEAST WISCONSIN

CITY           SKY/WX    TMP DP  RH WIND       PRES   REMARKS
ANTIGO         FOG       29  29 100 W7        29.89R VSB 1/2 WCI  22
SHAWANO        CLOUDY    32  30  93 SW3       29.93S FOG
OCONTO         CLOUDY    29  28  94 CALM      29.93F
STURGEON BAY   CLOUDY    30  29  96 SW8       29.93F FOG     WCI  22
GREEN BAY      CLOUDY    34  32  92 SW9       29.95S FOG     WCI  27
MANITOWOC      NOT AVBL
APPLETON       CLOUDY    32  32 100 SW10      29.94R FOG     WCI  24
CLINTONVILLE   CLOUDY    32  30  93 SW9       29.94R FOG     WCI  24
OSHKOSH        CLOUDY    33  31  92 SW9G17    29.96S FOG     WCI  25
$$

WIZ032>034-041-042-053>061-191000-
SOUTHWEST WISCONSIN

CITY           SKY/WX    TMP DP  RH WIND       PRES   REMARKS
LA CROSSE      CLEAR     37  33  85 S8        29.93F WCI  31
SPARTA         CLOUDY    34  33  96 CALM      29.95S
VIROQUA        CLOUDY    33  33 100 S7        29.93S VSB 1/2 WCI  27
BOSCOBEL       PTCLDY    35  33  92 CALM      29.97F FOG
PRAIRIE DU CHI PTCLDY    33  32  95 CALM      29.97S FOG
PLATTEVILLE    CLOUDY    33  33 100 S8        29.99S VSB 1/4 WCI  26
$$

WIZ056-057-062-063-064-067-068-191000-
SOUTH CENTRAL WISCONSIN

CITY           SKY/WX    TMP DP  RH WIND       PRES   REMARKS
REEDSBURG      CLOUDY    34  34 100 SW6       29.96S FOG     WCI  29
BARABOO/DELLS  CLOUDY    34  33  96 SW9       29.96S FOG     WCI  26
LONE ROCK      NOT AVBL
MINERAL POINT  FOG       34  34 100 S7        29.97S VSB 1/4 WCI  28
MADISON        CLOUDY    33  33 100 S5        29.99S FOG     WCI  29
MIDDLETON      CLOUDY    35  35 100 SW8       29.99R WCI  28
WATERTOWN      CLOUDY    33  33 100 SW9       29.99S FOG     WCI  26
MONROE         FOG       32  32 100 SW9       29.98S VSB 1/4 WCI  24
JANESVILLE       N/A     32  32 100 CALM      30.01S FOG
$$

WIZ051-052-058>065-066-070>072-191000-
SOUTHEAST WISCONSIN

CITY           SKY/WX    TMP DP  RH WIND       PRES   REMARKS
MILWAUKEE      CLOUDY    35  33  92 SW9       30.00S FOG     WCI  28
WAUKESHA       CLOUDY    32  32 100 SW8       30.00F FOG     WCI  25
MILWAUKEE/TIMM CLOUDY    34  32  93 SW8       30.01R FOG     WCI  27
RACINE         CLOUDY    33  32  96 SW8       30.02F FOG     WCI  26
KENOSHA        CLOUDY    34  32  92 SW9       30.02S FOG     WCI  27
FOND DU LAC    CLOUDY    34  31  88 SW12      29.97S FOG     WCI  25
SHEBOYGAN      CLOUDY    33  31  92 SW14      29.97R FOG     WCI  23
WEST BEND      CLOUDY    32  32 100 W7        29.99R FOG     WCI  26
JUNEAU         FOG       32  32  99 S9        29.99F VSB 1/4 WCI  24
$$

LSZ147-162-191000-
LAKE SUPERIOR

STATION/POSITION TIME  TEMP    WIND        PRES    WAVE
                       AIR SEA DIR/SP/G            HT/PER
                 (UTC) (F)     (DEG/KT/KT) (MB)    (FT/S)
DEVILS ISLAND    0800   33     170/  8/  9 1010.3R
PORT WING        0830   27      CALM  /  2 1009.5S
SAXON HARBOR     0740   33     180/  3/  6 1009.8S
$$

LMZ867-665-643>646-191000-
LAKE MICHIGAN

STATION/POSITION TIME  TEMP    WIND        PRES    WAVE
                       AIR SEA DIR/SP/G            HT/PER
                 (UTC) (F)     (DEG/KT/KT) (MB)    (FT/S)
NORTHPORT PIER   0840   33     250/  5/ 12 1012.9F
SISTER BAY       0650   34     220/ 13/ 16   N/A
KEWAUNEE LAKESHO 0830   32     230/  5/  8 1013.7S
SHEBOYGAN LAKESH 0800   33     230/  9/ 11 1015.0R
PORT WASHINGTON  0840   35     240/  5/ 12 1016.6S
MILWAUKEE LAKESH 0830   35     240/  7/  9   N/A
KENOSHA   LAKESH 0800   34     220/  7/ 12 1016.9
$$

TC  - TEMPERATURE IN CELSIUS
VSB - VISIBILITY IN STATUTE MILES
WCI - WIND CHILL INDEX
HX  - HEAT INDEX





USA.gov is the U.S. government's official web portal to all federal, state and local government web resources and services.